Find Starlink 4590

NORAD ID: 53606 Int'l Des: 2022-104 Owner: SPXS Country: US Constellation: starlink operational
LEOCIRCULAR

当前视图

正在加载3D地球...

About Starlink 4590

Starlink 4590 (NORAD 53606) is a starlink constellation satellite (v1.5) launched Aug 28, 2022 by SPXS of US. It operates in LEO, CIRCULAR orbit with a mass of 300.00 kg.

关于 Starlink 4590

正在加载描述...

即将过境

Passes for default location (London). Set your location on the main map for personalized predictions.

高度历史

Loading altitude history...

两行轨道根数

1 53606U 22104U 26175.13903675 .00000215 00000-0 31594-4 0 9998
2 53606 53.1610 116.2283 0001378 86.6772 273.4377 15.08831948211707
Epoch: Jun 24, 2026 • Age: 15 hours

当前状态

高度 541.9 km
速度 7.60 km/s
星下点 36.43°N, 73.74°E
发射日期 Aug 28, 2022
运行时间 3.8 years
类型 internet

技术详情

分类 Payload
质量 300.00 kg
干质量 290.00 kg
总质量 300.00 kg
长度 0.20 m
直径 2.80 m
跨度 9.00 m
形状 Box + pan
制造商 SPXS
平台类型 Starlink
阶段状态 In Orbit
所有者/国家 SPXS/US

Most Searched